CZ-6A DEB

Satellite information

Favourite Embed

Satellite Type and Status

DEBRISIN ORBIT

Key statistics

Satellite CZ-6A DEB at a glance.

Uptime

1084

Days in orbit

Revolutions

≈ 14.3

Per day

Orbit

SSO

Sun Synchronous Orbit

Inclination

98.9

Latest

Satellite identification and parameters

Extended collection of information and parameters for CZ-6A DEB.

Object identification

Identified? True

Debris? True

Object name: CZ-6A DEB

International designator: 2022-151JC

Object number (NORAD): 54500

Object ID (CCSDS): 54500

Country: PEOPLES REPUBLIC OF CHINA (PRC)

Current information (Y/N): Y

RCS size: SMALL

Orbital parameters

Period: 100.861 minutes

Inclination: 98.8981 deg

SMA: 7177.534 km

Apoapsis: 880.265 km

Periapsis: 718.534 km

RAAN: 337.9269 deg

Eccentricy: 0.01126648

Argument of periapsis: 120.5238 deg

Mean anomaly: 240.7121 deg

Mean motion: 14.27709447 rev/day

Mean motion (dot): 0.00003855 rev/day2

B* drag term: 0.0014767541 1/REarth

Two-line elements (TLE)

Creation date: Oct. 28, 2025, 7:11 p.m.

Reference frame: TEME

Reference center: EARTH

Epoch: Oct. 28, 2025, 1:24 p.m. UTC

TLE line 0: 0 CZ-6A DEB

TLE line 1: 1 54500U 22151JC 25301.55865074 .00003855 00000-0 14768-2 0 9995

TLE line 2: 2 54500 98.8981 337.9269 0112665 120.5238 240.7121 14.27709447153517

Live tracking on map

Real-time ground track for satellite CZ-6A DEB.

In-orbit conjunctions

A list of the most updated potential collisions computed for object CZ-6A DEB.

Target Orbit TCA Probability of collision Miss distance Type
CZ-6A DEB LEO 2025-09-18 09:21:01 0.0001081802 58.0 (m) DEBRIS
METEOR 1-15 LEO 2024-10-09 01:28:26 0.000286387 205.0 (m) PAYLOAD
DELTA 1 DEB SSO 2024-07-23 15:25:58 0.000158122 170.0 (m) DEBRIS

Associated space launch

Chinese satellite reported for atmospheric/ocean/environmental/spatial parameter research purposes, details TBD.

CZ-6A DEB was lifted into orbit during the mission ‘Long March 6A | Yunhai 3’, on board a Long March 6A space rocket.

The launch took place on Nov. 11, 2022, 10:52 p.m. from Launch Complex 9A.

For more information about the launch, click the button.

Launch to space Long March 6A | Yunhai 3
Long March 6A | Yunhai 3

Agency: N/A

Status: Launch Successful

Launch date: Nov. 11, 2022, 10:52 p.m. UTC

Rocket: Long March 6A

Launch pad: Launch Complex 9A

Location: Taiyuan Satellite Launch Center, People's Republic of China

...

Latest news about this satellite

There are no fresh news available about this satellite. Check back as we update our databases every day.


Newsletter sign-up

Weekly statistics, charts and insights to help you stay on top of the space industry.